Location: ?????
(31.8092°N, 35.2590°E)
Time: 14:57:41
(UTC+00:00)

COSMOS 2428 - Pass Details

Date: 20 June 2021
Orbit: 845 x 858 km, 70.9° (Epoch: 01 August)

Event Time Altitude Azimuth Distance (km) Brightness Sun altitude
Exits shadow 19:27:14 25° 224° (SW) 1,675 4.1 -26.2°
Maximum altitude 19:30:30 55° 292° (WNW) 1,019 3.3 -26.6°
Drops below altitude 10° 19:36:08 10° 11° (N) 2,494 5.7 -27.2°
Sets 19:38:39 0° 15° (NNE) 3,434 6.5 -27.5°
